星链-1795 (STARLINK-1795 )

导读 | 星芒AI

STARLINK-1795 是 SpaceX Starlink 项目中的一颗低轨通信卫星,属于第 5 批组网卫星(v1.0 版本)。该卫星于 2020 年 11 月 24 日由猎鹰 9 号火箭成功发射,部署在约 550 公里的近地轨道上,主要用于提供全球宽带互联网服务。STARLINK-1795 采用先进推进系统和激光通信技术,支持高速、低延迟的网络连接,助力偏远地区实现互联网覆盖。该卫星是 Starlink 卫星互联网星座的重要组成部分。

基本信息
目录编号:
46696
目录名称:
STARLINK-1795
国际标识:
2020-073AC
轨道中心:
EARTH
卫星名称:
星链-1795
卫星全名:
星链-1795 (STARLINK-1795 )
卫星状态:
在轨 (已飞行1837 天)
发射日期:
2020-10-18 UTC
国别 :
美国 (US)
星等 :
--
轨道信息
数据来源 国际轨道数据
星历时间: 2025-10-29T20:00:03+0800
4小时前
查看轨道信息
半长轴: 6873.259km
偏心率: 0.0001215
轨道倾角: 53.056°
近地点辐角 92.594°
升交点赤经 90.025°
平近点角 206.127°
近地点: 494.288km
远地点: 495.96km
周期: 94.516分钟
每日圈数: 15.23557
详细信息
固有亮度:
5
最大亮度:
2.5
卫星平台:
Starlink V1.0
覆盖范围:
全球
运营商:
太空探索技术公司
运营商所在国:
美国
制造商(研发单位):
太空探索技术公司
制造商所在国:
美国
使用方式:
暂无
卫星简介
星链(Starlink)计划是由太空探索技术公司(SpaceX)提出的一个巨型低轨卫星互联网星座项目,计划在2019年至2024年间在太空搭建由约1.2万颗卫星组成的“星链”网络,其中1584颗将部署在地球上空550千米处的近地轨道,并从2020年开始工作。该卫星仍在工作。
2D轨道图
3D轨道图
轨道高度分析图
轨道倾角分析图
轨道综合分析图
查看轨道综合分析图